Miscellaneous Local Product
Issued by NWS North Platte, NE

Home | Current Version | Previous Version | Text Only | Print | Product List | Glossary On
Versions: 1 2 3 4 5 6 7 8 9 10 11 12 13 14 15 16 17 18 19 20 21 22 23 24 25 26 27 28 29 30 31 32 33 34 35 36 37 38 39 40 41 42 43 44 45 46 47 48 49 50
759
AXUS43 KLBF 161210
MISLBF


WESTERN AND NORTH CENTRAL NEBRASKA HOURLY WEATHER ROUNDUP
NATIONAL WEATHER SERVICE NORTH PLATTE NE
600 AM CST MON JAN 16 2017

NOTE: "FAIR" INDICATES FEW OR NO CLOUDS BELOW 12,000 FEET WITH NO
SIGNIFICANT WEATHER AND/OR OBSTRUCTIONS TO VISIBILITY.

NOTE: STATIONS NOT REPORTING VARIABLES SUCH AS SKY/WEATHER OR
PRESSURE ARE PROVIDED BY RAWS AND APRS NETWORKS AND ARE NOT UNDER
NATIONAL WEATHER SERVICE QUALITY CONTROL.

...OBSERVATIONS IN AND NEAR THE EASTERN PANHANDLE OF NEBRASKA...

CITY           SKY/WX    TMP DP  RH WIND       PRES   REMARKS
PINE RIDGE     CLOUDY    23  21  92 CALM      30.05R
CHADRON        CLOUDY    28  21  75 NW5       30.06S WCI  23
ALLIANCE       CLOUDY    30  24  78 N8        29.99R WCI  22
SIDNEY         LGT SNOW  29  27  92 N17G24    29.96R FOG     WCI  17
CRESCENT LAKE    N/A     30  28  90 N6G13       N/A  WCI  24
$$

...OBSERVATIONS IN NORTHERN NEBRASKA AND FAR SOUTHERN SOUTH DAKOTA...

CITY           SKY/WX    TMP DP  RH WIND       PRES   REMARKS
WINNER         FAIR      21  16  81 NW6       30.05S WCI  13
VALENTINE      CLOUDY    28  22  78 NW3       30.02S
THEDFORD       DRIZZLE   32  32  99 N3        29.99S
AINSWORTH      MIX PCPN  31  30  94 N3        30.01S
O`NEILL        MIX PCPN  32  32 100 CALM      30.03F
ORD            CLOUDY    32  29  88 N7        29.98F FOG     WCI  26
BROKEN BOW     CLOUDY    32  31  96 N9        29.95F FOG     WCI  24
VALENTINE NWR    N/A     31  28  86 N3          N/A
BUTTE            N/A     27  23  85 CALM        N/A
HALSEY           N/A     30  30 100 CALM        N/A
SARGENT          N/A     31  22  68 CALM        N/A
CHAMBERS         N/A     32  31  97 CALM        N/A
EWING            N/A     31  30  95 S3          N/A
$$

...OBSERVATIONS IN SOUTHWEST NEBRASKA AND FAR NORTHEAST COLORADO...

CITY           SKY/WX    TMP DP  RH WIND       PRES   REMARKS
WRAY           LGT SNOW N/A N/A N/A N8        29.92
HOLYOKE        LGT SNOW  34  32  93 N8        29.94S WCI  27
IMPERIAL       MIX PCPN  32  30  92 N13       29.93F FOG     WCI  22
OGALLALA       LGT SNOW  34  33  96 NE5       29.95F WCI  30
NORTH PLATTE   CLOUDY    32  30  92 N7        29.95F FOG     WCI  26
MCCOOK         FRZ RAIN  32  31  96 N12       29.91F FOG     WCI  23
LEXINGTON      CLOUDY    31  30  95 N10       29.94F FOG     WCI  23
STAPLETON        N/A     30  29  96 CALM        N/A
GOTHENBURG       N/A     31  31  99 CALM        N/A
CALLAWAY         N/A     29  28  96 N6          N/A  WCI  23
$$

...OBSERVATIONS IN CENTRAL LINCOLN COUNTY AREA...

CITY           SKY/WX    TMP DP  RH WIND       PRES   REMARKS
N.P. AIRPORT   CLOUDY    32  30  92 N7        29.95F FOG     WCI  26
N.P. DOWNTOWN    N/A     31  30  96 CALM        N/A
N.P. SOUTHEAST   N/A     30  29  95 CALM        N/A
N.P. HILLCREST   N/A     31  30  96 NE6         N/A  WCI  25
$$

...SOME OBSERVATIONS FROM AROUND THE REGION...

CITY           SKY/WX    TMP DP  RH WIND       PRES   REMARKS
LARAMIE        CLOUDY    19  16  88 NE5       30.01R WCI  12
CHEYENNE       CLOUDY    30  17  58 N17G26    29.96F WCI  18
DENVER         LGT SNOW  28  26  92 N16       29.96S FOG     WCI  16
AKRON          MIX PCPN  28  26  92 N16       29.91F FOG     WCI  16
SCOTTSBLUFF    CLOUDY    35  25  66 NW9       30.01R WCI  28
RAPID CITY     CLOUDY    23  12  62 NW9       30.05S WCI  13
BISMARCK       CLOUDY    -3  -8  79 S3        30.07S
PIERRE         CLOUDY     7   4  87 NW3       30.07F
SIOUX FALLS    CLOUDY    25  20  81 N6        30.09S WCI  18
OMAHA          CLOUDY    33  29  85 NE7       30.04F FOG     WCI  27
GRAND ISLAND   MIX PCPN  31  31 100 NE14      29.96F FOG     WCI  21
KANSAS CITY    LGT RAIN  35  32  88 E10       29.94F FOG     WCI  27
WICHITA        LGT RAIN  43  43 100 S3        29.78S FOG
OKLAHOMA CITY  CLOUDY    40  39  97 SW10      29.85R WCI  33
DALLAS         FOG       50  50 100 S3        29.91S VSB 1/4
AMARILLO       CLOUDY    31  31 100 W10       29.85S WCI  22
DODGE CITY     CLOUDY    32  31  96 N15       29.79F WCI  22
GOODLAND       MIX PCPN  31  30  96 N16       29.86F WCI  20
$$




USA.gov is the U.S. government's official web portal to all federal, state and local government web resources and services.